Regional Weather Roundup
Issued by NWS

Home | Current Version | Previous Version | Graphics & Text | Print | Product List | Glossary Off
Versions: 1 2 3 4 5 6 7 8 9 10 11 12 13 14 15 16 17 18 19 20 21 22 23 24 25 26 27 28 29 30 31 32 33 34 35 36 37 38 39 40 41 42 43 44 45 46 47 48 49 50

000
ASUS43 KMKX 270020
RWRWI

WISCONSIN REGIONAL WEATHER ROUNDUP
NATIONAL WEATHER SERVICE MILWAUKEE/SULLIVAN WI
700 PM CDT THU APR 26 2018

NOTE: "FAIR" INDICATES FEW OR NO CLOUDS BELOW 12,000 FEET WITH NO
SIGNIFICANT WEATHER AND/OR OBSTRUCTIONS TO VISIBILITY.

WIZ001-002-006>008-014>016-023>028-270100-
NORTHWEST WISCONSIN

CITY           SKY/WX    TMP DP  RH WIND       PRES   REMARKS
SUPERIOR ARPT  PTSUNNY   55  29  37 E5        29.88S
6HR MIN TEMP:  54; 6HR MAX TEMP:  61;

ASHLAND        FAIR      50  34  54 E5        29.90S
6HR MIN TEMP:  48; 6HR MAX TEMP:  59;

HAYWARD        FAIR      54  32  43 N7        29.88R
6HR MIN TEMP:  54; 6HR MAX TEMP:  62;

SIREN          FAIR      58  25  29 N12       29.89R
6HR MIN TEMP:  58; 6HR MAX TEMP:  62;

CUMBERLAND     FAIR      55  30  38 N10G18    29.86S
RICE LAKE      FAIR      57  31  38 N12G17    29.87R
6HR MIN TEMP:  57; 6HR MAX TEMP:  63;

CHETEK         FAIR      55  34  44 N12G20    29.85R
6HR MIN TEMP:  55; 6HR MAX TEMP:  65;

LADYSMITH      FAIR      52  36  54 N15G23    29.88R
6HR MIN TEMP:  53; 6HR MAX TEMP:  65;

EAU CLAIRE     PTSUNNY   62  32  32 NW14G24   29.82R
6HR MIN TEMP:  61; 6HR MAX TEMP:  69;

MENOMONIE      FAIR      60  29  31 NW9       29.84R
6HR MIN TEMP:  61; 6HR MAX TEMP:  67;

NEW RICHMOND   FAIR      58  29  33 NW18G25   29.88R
6HR MIN TEMP:  58; 6HR MAX TEMP:  64;

OSCEOLA        FAIR      58  31  35 NW13G20   29.91R
6HR MIN TEMP:  58; 6HR MAX TEMP:  65;

$$

WIZ003>005-009-010-017-018-270100-
NORTH CENTRAL WISCONSIN

CITY           SKY/WX    TMP DP  RH WIND       PRES   REMARKS
MANITOWISH WTR FAIR      45  34  65 N7        29.87R
6HR MIN TEMP:  43; 6HR MAX TEMP:  59;

ARBOR VITAE    CLOUDY    43  35  74 N10       29.87R
6HR MIN TEMP:  43; 6HR MAX TEMP:  62;

WOODRUFF       CLOUDY    43  35  74 N10       29.87R
6HR MIN TEMP:  43; 6HR MAX TEMP:  62;

RHINELANDER    CLOUDY    45  34  65 N13G22    29.85R
6HR MIN TEMP:  45; 6HR MAX TEMP:  64; 6HR PCP: TRACE;

EAGLE RIVER    CLOUDY    42  32  69 N10G22    29.86R
6HR MIN TEMP:  42; 6HR MAX TEMP:  62;

LAND O LAKES   MOCLDY    41  33  75 N12G21    29.88R
6HR MIN TEMP:  42; 6HR MAX TEMP:  60;

PHILLIPS       FAIR      47  33  59 N10G18    29.87R
6HR MIN TEMP:  47; 6HR MAX TEMP:  63;

TOMAHAWK       CLOUDY    46  33  60 N13G26    29.86R
6HR MIN TEMP:  46; 6HR MAX TEMP:  64;

MEDFORD        FAIR      51  35  54 N16       29.81R
6HR MIN TEMP:  51; 6HR MAX TEMP:  63;

MERRILL        MOCLDY    51  33  50 N20G26    29.81R
6HR MIN TEMP:  51; 6HR MAX TEMP:  65;

$$

WIZ029-030-035-036-043>047-270100-
CENTRAL WISCONSIN

CITY           SKY/WX    TMP DP  RH WIND       PRES   REMARKS
WAUSAU         CLOUDY    55  35  47 N15G22    29.77R
6HR MIN TEMP:  57; 6HR MAX TEMP:  66; 6HR PCP: TRACE;

MOSINEE        MOCLDY    61  30  31 W6        29.76F
MARSHFIELD     CLOUDY    59  39  47 NW12      29.76R
6HR MIN TEMP:  59; 6HR MAX TEMP:  67;

STEVENS POINT  CLOUDY    62  29  29 SW6       29.76S
6HR MIN TEMP:  59; 6HR MAX TEMP:  65;

WAUPACA        CLOUDY    66  27  22 W5        29.76F
6HR MIN TEMP:  64; 6HR MAX TEMP:  71;

WAUTOMA        CLOUDY    66  27  23 W14       29.77F
6HR MIN TEMP:  63; 6HR MAX TEMP:  69;

WISC RAPIDS    MOCLDY    65  28  24 W9        29.76F
6HR MIN TEMP:  65; 6HR MAX TEMP:  71;

CAMP DOUGLAS   FAIR      65  33  31 W15G21    29.77S
6HR MIN TEMP:  65; 6HR MAX TEMP:  69;

$$

WIZ011>013-019>022-031-037>040-048>050-270100-
NORTHEAST WISCONSIN

CITY           SKY/WX    TMP DP  RH WIND       PRES   REMARKS
ANTIGO         CLOUDY    52  36  53 N21G26    29.78R
6HR MIN TEMP:  52; 6HR MAX TEMP:  61;

SHAWANO        MOCLDY    64  29  26 W3        29.75F
6HR MIN TEMP:  62; 6HR MAX TEMP:  68;

OCONTO         FAIR      62  32  31 W6        29.75S
6HR MIN TEMP:  60; 6HR MAX TEMP:  66;

STURGEON BAY   FAIR      51  37  58 S10       29.77F
6HR MIN TEMP:  50; 6HR MAX TEMP:  63;

GREEN BAY      FAIR      63  38  39 S6        29.76F
6HR MIN TEMP:  59; 6HR MAX TEMP:  66;

MANITOWOC      FAIR      49  34  56 S10       29.79F
6HR MIN TEMP:  49; 6HR MAX TEMP:  62;

APPLETON       MOCLDY    63  23  22 W6        29.75F
CLINTONVILLE   CLOUDY    64  27  24 CALM      29.75F
6HR MIN TEMP:  61; 6HR MAX TEMP:  67;

OSHKOSH        FAIR      65  33  30 SW7       29.76F
6HR MIN TEMP:  61; 6HR MAX TEMP:  66;

$$

WIZ032>034-041-042-053>061-270100-
SOUTHWEST WISCONSIN

CITY           SKY/WX    TMP DP  RH WIND       PRES   REMARKS
LA CROSSE      FAIR      65  39  38 NW16      29.79R
6HR MIN TEMP:  64; 6HR MAX TEMP:  72;

SPARTA         MOCLDY    64  41  41 W9        29.79S
6HR MIN TEMP:  64; 6HR MAX TEMP:  69;

VIROQUA        MOCLDY    62  42  48 W10       29.80S
6HR MIN TEMP:  62; 6HR MAX TEMP:  67;

BOSCOBEL       MOCLDY    69  34  27 W9        29.79F
6HR MIN TEMP:  66; 6HR MAX TEMP:  73;

PRAIRIE DU CHI FAIR      67  34  29 W14       29.79F
6HR MIN TEMP:  65; 6HR MAX TEMP:  72;

PLATTEVILLE    FAIR      66  30  26 W10       29.80F
6HR MIN TEMP:  64; 6HR MAX TEMP:  71;

$$

WIZ056-057-062-063-064-067-068-270100-
SOUTH CENTRAL WISCONSIN

CITY           SKY/WX    TMP DP  RH WIND       PRES   REMARKS
REEDSBURG      FAIR      65  33  29 W9        29.77S
6HR MIN TEMP:  61; 6HR MAX TEMP:  69;

BARABOO/DELLS  MOCLDY    66  26  21 SW8G16    29.77F
6HR MIN TEMP:  62; 6HR MAX TEMP:  69;

LONE ROCK      FAIR      67  32  27 W12       29.78F
6HR MIN TEMP:  63; 6HR MAX TEMP:  70;

MINERAL POINT  FAIR      68  27  21 W10       29.79F
MADISON        MOCLDY    65  31  28 CALM      29.78F
6HR MIN TEMP:  61; 6HR MAX TEMP:  67;

MIDDLETON      FAIR      68  26  20 W5        29.79F
6HR MIN TEMP:  64; 6HR MAX TEMP:  71;

WATERTOWN      FAIR      64  30  28 SW3       29.79F
6HR MIN TEMP:  61; 6HR MAX TEMP:  67;

MONROE         FAIR      64  28  25 SW7       29.80F
JANESVILLE     MOCLDY    66  25  20 W10       29.81F
$$

WIZ051-052-058>065-066-070>072-270100-
SOUTHEAST WISCONSIN

CITY           SKY/WX    TMP DP  RH WIND       PRES   REMARKS
MILWAUKEE      MOCLDY    58  30  34 S8        29.82F
6HR MIN TEMP:  58; 6HR MAX TEMP:  66;

WAUKESHA       CLEAR     63  27  25 SW10      29.81F
MILWAUKEE/TIMM CLEAR     64  23  20 W8        29.81F
RACINE         FAIR      53  25  33 S14       29.83F
6HR MIN TEMP:  52; 6HR MAX TEMP:  55;

BURLINGTON     FAIR      65  31  27 SW9       29.81F
6HR MIN TEMP:  61; 6HR MAX TEMP:  67;

KENOSHA        FAIR      58  29  33 S10       29.82F
6HR MIN TEMP:  57; 6HR MAX TEMP:  65;

FOND DU LAC    FAIR      64  31  28 SW7       29.77F
6HR MIN TEMP:  60; 6HR MAX TEMP:  66; 6HR PCP: TRACE;

SHEBOYGAN      FAIR      54  35  48 S10       29.79F
6HR MIN TEMP:  54; 6HR MAX TEMP:  66;

WEST BEND      FAIR      63  28  27 W5        29.80S
JUNEAU         FAIR      63  31  30 SW7       29.79F
6HR MIN TEMP:  59; 6HR MAX TEMP:  65;

$$

LSZ147-162-270100-
LAKE SUPERIOR

STATION/POSITION TIME  TEMP    WIND        PRES    WAVE
                       AIR SEA DIR/SP/G            HT/PER
                 (UTC) (F)     (DEG/KT/KT) (MB)    (FT/S)
DEVILS ISLAND    0000   46     130/  7/  8 1012.8S
SAXON HARBOR     2330   42     320/  4/  4 1012.5R
$$

LMZ867-665-643>646-270100-
LAKE MICHIGAN

STATION/POSITION TIME  TEMP    WIND        PRES    W



USA.gov is the U.S. government's official web portal to all federal, state and local government web resources and services.